Tracking 19576 objects as of 17-Feb-2019
HD Live streaming from Space Station
objects crossing your sky now

COSMOS 860 COOLANT

Track COSMOS 860 COOLANT now!
10-day predictions


NORAD ID: 29195
Int'l Code: 1976-103H
Perigee: 905.0 km
Apogee: 994.4 km
Inclination: 64.7 °
Period: 103.9 minutes
Semi major axis: 7320 km
RCS: 0.0092 m2 (small)
Launch date: October 17, 1976
Source: Commonwealth of Independent States (former USSR) (CIS)
Launch site: TYURATAM MISSILE AND SPACE COMPLEX (TTMTR)

Note: This is SATELLITE DEBRIS
aabbcc
Your satellite tracking list
Your tracking list is empty




NASA's NSSDC Master Catalog

Two Line Element Set (TLE):
1 29195U 76103H   19045.94615780 -.00000015 +00000-0 +65602-4 0  9992
2 29195 064.6967 208.2181 0061076 202.5774 157.2596 13.86024419268228
Source of the keplerian elements: AFSPC